Regional Weather Roundup
Issued by NWS

Home | Current Version | Previous Version | Text Only | Print | Product List | Glossary Off
Versions: 1 2 3 4 5 6 7 8 9 10 11 12 13 14 15 16 17 18 19 20 21 22 23 24 25 26 27 28 29 30 31 32 33 34 35 36 37 38 39 40 41 42 43 44 45 46 47 48 49 50

000
ASUS44 KMEG 300910
RWRTN
TENNESSEE HOURLY STATE WEATHER ROUNDUP
NATIONAL WEATHER SERVICE MEMPHIS TN
400 AM CDT TUE JUN 30 2015

TNZ002-004-019-021-049-052-054-088>092-301000-
WEST TENNESSEE

CITY           SKY/WX    TMP DP  RH WIND       PRES   REMARKS
MEMPHIS INTL   MOCLDY    71  65  81 S6        29.91S
NWS MEMPHIS      N/A     69 N/A N/A MISG        N/A
JACKSON        PTCLDY    72  66  81 SW8       29.90R
DYERSBURG        N/A    N/A N/A N/A MISG        N/A
PARIS          CLEAR     66  64  94 CALM      29.88S
LEXINGTON      CLEAR     70  68  94 SW5       29.89S
$$

TNZ008-025-027-028-033-062-065-066-301000-
NORTH MIDDLE TENNESSEE

CITY           SKY/WX    TMP DP  RH WIND       PRES   REMARKS
NASHVILLE      PTCLDY    70  70 100 CALM      29.89F
CLARKSVILLE    CLEAR     67  66  97 CALM      29.88S
SMYRNA         MOCLDY    70  68  93 CALM      29.91S
COOKEVILLE     MOCLDY    66  64  94 CALM      29.94R
CROSSVILLE     TSTM      65  62  90 SW3       29.99F
$$

TNZ061-075-076-078-094-096-097-301000-
SOUTH MIDDLE TENNESSEE

CITY           SKY/WX    TMP DP  RH WIND       PRES   REMARKS
FAYETTEVILLE   PTCLDY    72  64  78 W3        29.94F
TULLAHOMA      CLOUDY    72  64  78 SW5       29.95R
WINCHESTER     CLOUDY    77  66  69 W10       29.94R
MCMINNVILLE    CLOUDY    68  68 100 NE3       29.94S
COLUMBIA       CLEAR     70  70 100 S3        29.90S
SHELBYVILLE    CLEAR     72  70  94 S8        29.93S
$$

TNZ017-018-042-046-047-301000-
NORTHEAST TENNESSEE

CITY           SKY/WX    TMP DP  RH WIND       PRES   REMARKS
TRI CITIES     MOCLDY    68  63  84 W5        29.96S
ELIZABETHTON   MOSUNNY   63  61  94 CALM      29.96F
$$

TNZ012-013-036-069-073-074-301000-
CENTRAL EAST TENNESSEE

CITY           SKY/WX    TMP DP  RH WIND       PRES   REMARKS
KNOXVILLE      CLOUDY    65  63  93 SW7       29.95F
OAK RIDGE      LGT RAIN  66  64  93 SW3       29.96F
GATLINBURG     CLOUDY    64  61  88 W10       30.01R
MORRISTOWN     PTSUNNY   64  63  94 S10       29.96F
$$

TNZ083-085-099-301000-
SOUTHEAST TENNESSEE

CITY           SKY/WX    TMP DP  RH WIND       PRES   REMARKS
CHATTANOOGA    PTCLDY    74  63  68 S7        29.94F
$$

SKY/WX REPORTED AS FAIR MEANS FEW OR NO CLOUDS BELOW
12 THOUSAND FEET.




USA.gov is the U.S. government's official web portal to all federal, state and local government web resources and services.